Regional Weather Roundup
Issued by NWS Grand Forks, ND

Home | Current Version | Previous Version | Graphics & Text | Print | Product List | Glossary On
Versions: 1 2 3 4 5 6 7 8 9 10 11 12 13 14 15 16 17 18 19 20 21 22 23 24 25 26 27 28 29 30 31 32 33 34 35 36 37 38 39 40 41 42 43 44 45 46 47 48 49 50
000
ASUS43 KFGF 242331
RWRFGF
PRAIRIE TO PINES  WEATHER ROUNDUP
NATIONAL WEATHER SERVICE EASTERN NORTH DAKOTA/GRAND FORKS ND
600 PM CDT SAT SEP 24 2016

 **SATELLITE DATA USED TO AUGMENT SKY COVER AT AUTOMATED STATIONS**
 *****  WEATHER ACROSS EASTERN NORTH DAKOTA  *****

CITY           SKY/WX    TMP DP  RH WIND       PRES   REMARKS
GRAND FORKS    CLOUDY    74  65  73 SE20      29.77S
GRAND FRKS AFB CLOUDY    73  66  78 S13       29.77R
DEVILS LAKE    MOSUNNY   71  67  87 SE13      29.73S
FARGO          CLOUDY    75  65  70 SE16G25   29.80R
WAHPETON ARPT  CLOUDY    70  66  88 SE10      29.84S
$$

 ***** WEATHER ACROSS CENTRAL AND WESTERN NORTH DAKOTA  *****

CITY           SKY/WX    TMP DP  RH WIND       PRES   REMARKS
BISMARCK       MOSUNNY   76  50  40 SW15G23   29.70R
MINOT          MOSUNNY   77  62  59 S10       29.64S
JAMESTOWN      CLOUDY    75  66  73 S15G23    29.73F
MINOT AFB      MOSUNNY   76  64  64 W10       29.64R
GARRISON         N/A     75  56  51 S15G22    29.67R
WILLISTON      CLOUDY    55  52  89 N31G38    29.75S
DICKINSON      PTSUNNY   65  49  56 S15       29.67S
HETTINGER      PTSUNNY   65  48  54 S20G30    29.73R
$$

 *****  OTHER AIRPORT OBSERVATIONS IN OUR AREA  *****

CITY           SKY/WX    TMP DP  RH WIND       PRES   REMARKS
WALHALLA       FAIR      70  66  88 SE13G18   29.76S
GRAFTON AIRPOR CLOUDY    72  68  88 SE15G24   29.78S
VALLEY CITY AR MOCLDY    73  73 100 S12       29.78S
CANDO          FAIR      70  70 100 SE14      29.74S
CAVALIER APRT  CLOUDY    72  66  83 SE12G20   29.76S
GWINNER        FAIR      75  68  78 SE14      29.77F
SHEYENNE NWR     N/A     76  67  73 SE10      29.95S
ROLLA          CLOUDY    68  68 100 SE13G20   29.73S
 ***** THE ABOVE OBSERVATIONS ARE NON NWS ARE NOT QUALITY
       CONTROLLED AND MAY MIS-REPORT RAIN FOR SNOW...
$$

  *****  WEATHER ACROSS NORTHERN MINNESOTA  *****

CITY           SKY/WX    TMP DP  RH WIND       PRES   REMARKS
FLAG ISLAND    SUNNY     64  61  88 SE5       29.89S
WARROAD        PTSUNNY   66  63  88 SE13      29.90R
ROSEAU         PTSUNNY   68  63  83 SE12G22   29.88R
HALLOCK        CLOUDY    73  66  78 SE16      29.79R
THF RVR FALLS  CLOUDY    70  63  78 SE17      29.86R
BAUDETTE       MOSUNNY   68  60  75 SE14      29.91S
WASKISH        CLOUDY    64  61  88 SE10G16   29.95R
CROOKSTON      MOSUNNY   72  64  78 S22G28    29.82R
STEPHEN NDAWN    N/A     73  64  73 SE15        N/A
GREENBUSH NDAW   N/A     70  63  78 SE15        N/A
$$
  *****  WEATHER ACROSS CENTRAL AND WEST MINNESOTA  *****

CITY           SKY/WX    TMP DP  RH WIND       PRES   REMARKS
FOSSTON        CLOUDY    66  59  77 SE14G21   29.89S
BEMIDJI        CLOUDY    64  61  89 SE15G22   29.94R
PARK RAPIDS    CLOUDY    67  61  81 SE14      29.94R
ELBOW LAKE     RAIN      69  68  96 SE10      29.86F
WADENA         CLOUDY    66  63  88 SE12G18   29.92F FOG
DETROIT LAKES  CLOUDY    66  63  88 SE14G23   29.91R
MOORHEAD       LGT RAIN  72  64  78 SE13G24   29.82S
FERGUS FALLS   CLOUDY    70  68  94 SE13      29.89R
MORRIS MN      RAIN      68  66  94 SE6       29.86F
STAPLES        CLOUDY    64  63  94 SE7       29.95S
$$
  *****  WEATHER ELSEWHERE ACROSS MINNESOTA  *****

CITY           SKY/WX    TMP DP  RH WIND       PRES   REMARKS
DULUTH         CLOUDY    62  59  90 E10       30.08R
INTRNTL FALLS  CLOUDY    65  59  81 SE15      29.99S
ELY            CLOUDY    61  54  77 SE7       30.08R
CLOQUET        CLOUDY    61  57  88 E7        30.06S
WHEATON        NOT AVBL
BRAINERD       CLOUDY    66  62  87 SE10      29.98S
HIBBING        CLOUDY    60  59  96 SE13      30.05R FOG
ALEXANDRIA     CLOUDY    69  66  90 SE13      29.92R
SAINT CLOUD    CLOUDY    67  65  93 E10       29.96F
MINNEAPOLIS    CLOUDY    69  63  81 SE17      30.00S
$$

  *****  WEATHER ACROSS SOUTH DAKOTA  *****

CITY           SKY/WX    TMP DP  RH WIND       PRES   REMARKS
SIOUX FALLS    PTSUNNY   73  69  87 S10       29.86S
BROOKINGS      CLOUDY    68  66  93 S9        29.87R
WATERTOWN      CLOUDY    72  69  90 S9        29.84S
HURON          SUNNY     78  56  46 S13       29.79S
SISSETON         N/A     72  69  90 S8        29.81S
ABERDEEN       PTSUNNY   80  57  45 S18       29.75F
MITCHELL       SUNNY     78  59  51 S10       29.82F
PIERRE         SUNNY     75  42  30 SW15      29.80R
MOBRIDGE       SUNNY     77  43  29 S15G30    29.72S
RAPID CITY     SUNNY     57  38  48 W17       29.91R
$$

  *****  SOME WEATHER IN NEARBY STATES *****

CITY           SKY/WX    TMP DP  RH WIND       PRES   REMARKS
GLASGOW MT     CLOUDY    53  46  77 NW23      29.97R
GREAT FALLS MT MOSUNNY   60  36  40 NW16      30.16S
CHEYENNE WY    CLOUDY    56  33  42 NW17G23   30.11R
SCOTTSBLUFF NE CLOUDY    65  41  41 NW18G26   30.03R
OMAHA NE       LGT RAIN  73  70  90 S15       29.89F
DES MOINES IA  PTSUNNY   85  69  58 S12       29.95R
DAVENPORT IA   CLEAR     76  68  76 E10       30.05S
CHICAGO IL     PTCLDY    71  62  73 E9        30.13S
EAU CLAIRE WI  CLOUDY    66  60  81 S14       30.08R
LA CROSSE WI   CLOUDY    70  63  78 SE12      30.07S
$$

  *****  SOME NATIONAL WEATHER *****

CITY           SKY/WX    TMP DP  RH WIND       PRES   REMARKS
LA GUARDIA NY  PTCLDY    69  44  40 NE8       30.09R
RALEIGH NC     PTCLDY    79  73  82 CALM      30.03R
ATLANTA GA     PTCLDY    89  62  40 NE6       30.04R
NEW ORLEANS LA PTSUNNY   84  74  71 CALM      29.99F HX  91
OKLAHOMA CITY  CLOUDY    84  69  60 S15       29.90R
ALBUQUERQUE NM MOSUNNY   70  29  21 N13       30.10S
SALT LAKE CITY MOSUNNY   62  43  49 W9        30.27S
LOS ANGELES CA SUNNY     79  49  34 W16       29.95F
BOISE ID       SUNNY     67  33  28 W10       30.28F
SEATTLE WA     PTSUNNY   64  47  53 SW7       30.35S
$$

*** WEATHER ACROSS MANITOBA...SASKATCHEWAN AND ONTARIO ***
                ***ONTARIO***

CITY           SKY/WX    TMP DP  RH WIND       PRES   REMARKS
GERALDTON      MOCLDY    59  46  63 S5        30.21
THUNDER BAY    PTCLDY    63  54  72 E10G20    30.15F
SIOUX LOOKOUT  MOCLDY    59  54  82 SE8       30.05F
TORONTO        CLEAR     61  39  44 E3        30.22S
BIG TROUT LK   CLEAR     59  37  44 SE6       30.12F
PICKLE LAKE    CLOUDY    59  45  58 S10G18    30.12F
DRYDEN         CLOUDY    63  55  77 SE10      30.01F
KENORA         CLOUDY    63  59  88 SE13G23   29.94F
$$
                *** MANITOBA***

CITY           SKY/WX    TMP DP  RH WIND       PRES   REMARKS
BRANDON        LGT RAIN  64  64 100 E8        29.71F FOG
DAUPHIN        CLOUDY    61  59  94 E6        29.72F
ISLAND LAKE    MOCLDY    61  48  63 SE15G22   29.94F
PILOT MOUND      N/A     68  66  94 SE15        N/A
THE PAS        LGT RAIN  52  52 100 W6        29.83S FOG
THOMPSON       LGT RAIN  48  48 100 E5        29.90F
WINNIPEG       PTSUNNY   68  63  83 E12G17    29.78F
LYNN LAKE      LGT RAIN  48  48 100 SE7       29.85F FOG
CHURCHILL      CLOUDY    59  43  55 SE7       30.07F
GILLAM         LGT RAIN  54  46  76 E5        30.02F
$$
                ***SASKATCHEWAN***

CITY           SKY/WX    TMP DP  RH WIND       PRES   REMARKS
ESTEVAN        LGT RAIN  54  54 100 NW18G26   29.77R
KINDERSLEY     MOSUNNY   59  34  38 NW17G24   30.02R
LLOYDMINSTER   MOSUNNY   59  37  44 N18G25    29.99R
PRINCE ALBERT  CLOUDY    52  48  87 NW6       29.91R
REGINA         LGT RAIN  52  48  87 NW21G32   29.89R
YORKTON        CLOUDY    52  50  93 NW14      29.81S
N. BATTLEFORD  SUNNY     59  37  44 NW16G22   29.97S
LA RONGE       CLOUDY    52  50  93 SW3       29.89R
SASKATOON      CLOUDY    55  48  76 NW9       29.96R
SWIFT CURRENT  CLOUDY    54  46  76 N17G25    29.98S
$$
NOTE: THESE ARE AUTOMATED STATIONS WITH LIMITED QUALITY CONTROL
      "FAIR" INDICATES FEW OR NO CLOUDS BELOW 12,000 FEET WITH NO
      SIGNIFICANT WEATHER AND/OR OBSTRUCTIONS TO VISIBILITY.
      SKY/WX - SKY CONDITION AND SIGNIFICANT WEATHER.
      TMP - AIR TEMPERATURE.    DP   - DEWPOINT TEMPERATURE.
      RH  - RELATIVE HUMIDITY.  PRES - PRESSURE.
      HX  - HEAT INDEX.         WCI  - WIND CHILL INDEX.
$




USA.gov is the U.S. government's official web portal to all federal, state and local government web resources and services.